sat.trackr.live / text

‹ back to catalog

ONEWEB-0643

NORAD 55807 · 2023-029M

PAYLOAD ACTIVE UNKNOWN

§ Identity

Operator
Country
UK
Launch date
2023-03-09
Launch site
AFETR
Launch vehicle
Mass (kg)
RCS (m²)

Purposes: comms

External: N2YO · Heavens-Above · Gunter

§ Orbital elements

Epoch: 2026-09-19T23:41:00.433248Z

Period
109.55 min
Inclination
87.8889°
Eccentricity
0.0001428
Mean motion
13.14501924 rev/d
Perigee alt
1,204.7 km
Apogee alt
1,206.9 km
Semi-major
7,583.9 km
B*
-1.9426e-4
RAAN
270.8130°
Arg perigee
73.0248°
Mean anomaly
287.1038°
Rev number
17,184

§ Raw data

ONEWEB-06431 55807U 23029M   26262.98681057 -.00000059  00000+0 -19426-3 0  99932 55807  87.8889 270.8130 0001428  73.0248 287.1038 13.14501924171845

JSON: /api/v1/satellites/55807 · /tle

For live sub-satellite position, see the globe view (requires WebGL).

§ Visibility from observer

Set your observer location to see the next 7 days of passes ≥ 10°. The values pass through the URL so the page stays shareable.

No JS? Fill the form by hand. The geolocation button needs JavaScript.